Location: Newark
(35.6799°N, 139.7636°E)
Time: 02:18:50
(UTC+00:00)

Vanguard 1 Rocket - Pass Details

Date: 21 December 2019
Orbit: 650 x 4226 km, 34.3° (Epoch: 23 January)

Event Time Altitude Azimuth Distance (km) Brightness Sun altitude
Rises 10:57:33 0° 265° (W) 8,439 13.2 -41.0°
Reaches altitude 10° 11:03:44 10° 265° (W) 7,250 12.6 -42.2°
Enters shadow 11:26:49 85° 212° (SSW) 2,845 9.5 -46.9°
